Location: Unspecified
(0.0000°N, 0.0000°E)
Time: 15:04:45
(UTC+00:00)

Altair - Pass Details

Date: 03 November 2021
Orbit: 1502 x 1682 km, 47.2° (Epoch: 26 November)

Event Time Altitude Azimuth Distance (km) Brightness Sun altitude
Rises 19:47:53 0° 208° (SSW) 4,743 10.7 -29.9°
Reaches altitude 10° 19:51:09 10° 202° (SSW) 3,734 10.0 -30.6°
Enters shadow 19:59:44 48° 137° (SE) 1,903 7.7 -32.7°
Maximum altitude 20:00:06 48° 130° (SE) 1,898 - -32.8°
Drops below altitude 10° 20:08:47 10° 58° (ENE) 3,646 - -34.8°
Sets 20:11:55 0° 53° (NE) 4,623 - -35.6°
